Regional Weather Roundup
Issued by NWS Newport/Morehead, NC

Current Version | Previous Version | Graphics & Text | Print | Product List | Glossary Off
Versions: 1 2 3 4 5 6 7 8 9 10 11 12 13 14 15 16 17 18 19 20 21 22 23 24 25 26 27 28 29 30 31 32 33 34 35 36 37 38 39 40 41 42 43 44 45 46 47 48 49 50

000
ASUS42 KMHX 221710
RWRMHX
WEATHER ROUNDUP FOR EASTERN NORTH CAROLINA
NATIONAL WEATHER SERVICE NEWPORT/MOREHEAD CITY NC
1200 PM EST MON DEC 22 2014

NOTE: "FAIR" INDICATES FEW OR NO CLOUDS BELOW 12,000 FEET
WITH NO SIGNIFICANT WEATHER AND/OR OBSTRUCTIONS TO VISIBILITY

NCZ015>017-031-032-045>047-102-103-221800-
NORTH COAST

CITY           SKY/WX    TMP DP  RH WIND       PRES   REMARKS
EDENTON        HVY RAIN  48  47  97 N9        30.05F
ELIZABETH CITY HVY RAIN  54  48  82 NE17G24   30.04F
KITTY HAWK     HVY RAIN  53  53 100 NE12G17   30.00F
MANTEO         DRIZZLE   54  54  99 NE14      30.01F

$$

NCZ045>047-081-094-103-104-221800-
CENTRAL COAST

CITY           SKY/WX    TMP DP  RH WIND       PRES   REMARKS
FRISCO         CLOUDY    60  60 100 SE14      29.97F FOG
SWANQUARTER      N/A     52 N/A N/A N9        29.97F

$$

NCZ095-097-098-100-101-221800-
SOUTHERN COAST

CITY           SKY/WX    TMP DP  RH WIND       PRES   REMARKS
BEAUFORT       LGT RAIN  51  50  96 N10       30.01F
CEDAR ISLAND     N/A     50 N/A N/A NW6G18    30.03F
JACKSONVILLE   CLOUDY    46  44  93 N7        30.04F
PINEY ISLAND     N/A    N/A N/A N/A MISG      30.00F
WILMINGTON     CLOUDY    45  44  97 N7        30.04F


$$

NCZ011>013-027>030-043-044-078>080-089-090>093-098-221800-
COASTAL PLAIN

CITY           SKY/WX    TMP DP  RH WIND       PRES   REMARKS
AHOSKIE        CLOUDY    42  41  95 N9        30.11S
CLINTON        CLOUDY    43  43  99 N9        30.07F
ELIZABETHTOWN  CLOUDY    44  43  97 N5        30.06F
GOLDSBORO      NOT AVBL
GREENVILLE     CLOUDY    45  43  93 NE10      30.09F
HAVELOCK       LGT RAIN  49  47  93 N10       30.03F
KENANSVILLE    CLOUDY    43  42  96 N6        30.08F
KINSTON        CLOUDY    45  43  93 N9        30.07F FOG
NEW BERN       LGT RAIN  49  45  86 N9        30.05F
RICHLANDS      CLOUDY    45  41  87 N7        30.06F
ROCKY MOUNT    CLOUDY    41  39  93 N10       30.11F FOG
WASHINGTON     CLOUDY    44  43  97 N9        30.06F
WHITEVILLE     DRIZZLE   44  41  91 N5        30.06F

$$

AMZ130-135-150-152-154-156-158-170-250-252-270-ANZ085-086-088-633-658-670-221800-
MARINE OBSERVATIONS

STATION/POSITION TIME  TEMP    WIND        PRES    WAVE   SWELL
                       AIR SEA DIR/SP/G            HT/PER HT/PER
                 (UTC) (F)     (DEG/KT/KT) (MB)    (FT/S) (FT/S)
CHESAPEAKE LIGHT 1600   48      60/ 29/ 31 1020.5
64 E VA BEACH    1700   58 54   70/ 16/ 19 1018.2    7/ 6   2/10
DUCK             1700   50 46   30/ 26/ 29 1016.1
2 E DUCK         1700      47                N/A     6/ 6
10 NE DUCK       1700      51                N/A     7/ 6
OREGON INLET     1700   55 48   80/  8/ 12 1015.5
13E OREGON INLT  1700      52                N/A     8/ 7
HATTERAS CG      1700   62 51  150/ 10/ 15 1015.3
DIAMOND BUOY     1700   69                 1014.5   10/ 8
17 S OCRACOKE    NOT AVBL
CAPE LOOKOUT     1600   52     350/ 10/ 12 1016.5
BEAUFORT LAB     1700   50 51  350/  9/ 11 1015.0
30 SE NEW RIVER  1700   53 60  350/ 16/ 17 1016.3    7/ 8   5/ 8
5 SE WRIGHTSVLE  NOT AVBL
225 S CAPE HAT   1631   71 72  210/  8/ 10 1017.8    4/ 6   3/ 6
41 SE CHARLESTON 1700   60 73   20/ 14/ 17 1016.1    5/10   3/10

$$


USA.gov is the U.S. government's official web portal to all federal, state and local government web resources and services.